Location: Cucq
(50.4773°N, 1.6202°E)
Time: 17:26:53
(UTC+00:00)

Cosmos 1025 Rocket - Pass Details

Date: 07 August 2020
Orbit: 594 x 618 km, 82.5° (Epoch: 25 September)

Event Time Altitude Azimuth Distance (km) Brightness Sun altitude
Rises 01:29:21 0° 344° (NNW) 2,856 7.3 -20.3°
Reaches altitude 10° 01:31:38 10° 338° (NNW) 1,946 6.2 -20.2°
Maximum altitude 01:35:43 44° 267° (W) 832 3.5 -19.9°
Enters shadow 01:36:09 42° 248° (WSW) 853 3.4 -19.9°
